Simultaneous Nadir Overpasses (SNOs) Predictions

Prediction of SNOs between GOES-17 and METOP-C Satellite Orbit:

Table of predicted SNOs for the next 14.0 days since TLE Epoch: 7/20/2024
Index Date Time (GOES-17) GOES-17 Lat,Lon METOP-C Lat,Lon Distance(km) Time Diff (sec)
1 07/20/2024 16:20:09 0.00,-104.72 -0.42,-102.81 217.26 80
2 07/22/2024 04:41:51 -0.00,-104.69 -0.60,-107.41 309.66 80
3 07/23/2024 04:18:33 0.00,-104.70 0.49,-102.42 259.37 80
4 07/24/2024 16:40:07 0.00,-104.74 0.48,-106.99 256.62 80
5 07/25/2024 16:16:49 -0.00,-104.74 -0.61,-102.00 312.73 80
6 07/27/2024 04:38:30 -0.00,-104.72 -0.43,-106.59 213.41 80
7 07/28/2024 04:15:11 0.00,-104.72 0.67,-101.60 355.88 80
8 07/29/2024 16:36:46 0.01,-104.76 0.30,-106.17 160.12 80
9 07/30/2024 16:13:27 0.00,-104.76 -0.81,-101.18 409.15 80
10 08/01/2024 04:35:08 -0.01,-104.74 -0.26,-105.76 116.98 80
11 08/02/2024 04:11:49 -0.00,-104.74 0.86,-100.77 452.22 80
